KT2UU-13 Weather Reports


Display with metric or nautical units.
time (UTC)temp
F
wind
direction
speed
MPH
gust
MPH
rain 1hr
in
rain 24hr
in
rain mn
in
humidity
%
barometer
mb
20260502212007 66 254 5.0 11.0 0.00 0.00 0.00 38 1015.1
20260502211503 66 233 5.0 8.0 0.00 0.00 0.00 36 1015.1
20260502211001 66 258 4.0 8.0 0.00 0.00 0.00 35 1014.9
20260502210457 67 308 4.0 7.0 0.00 0.00 0.00 37 1014.7
20260502205954 66 285 4.0 11.0 0.00 0.00 0.00 35 1015.1
20260502205450 67 161 5.0 13.0 0.00 0.00 0.00 35 1014.9
20260502204948 68 134 5.0 7.0 0.00 0.00 0.00 38 1014.7
20260502204444 68 296 1.0 4.0 0.00 0.00 0.00 38 1014.9
20260502203943 67 258 3.0 7.0 0.00 0.00 0.00 37 1014.8
20260502203439 67 333 1.0 9.0 0.00 0.00 0.00 36 1015.2
20260502202936 67 249 4.0 6.0 0.00 0.00 0.00 37 1015.0
20260502202433 66 211 4.0 11.0 0.00 0.00 0.00 38 1015.1
20260502201931 66 224 1.0 2.0 0.00 0.00 0.00 37 1015.3
20260502201427 66 249 4.0 9.0 0.00 0.00 0.00 37 1015.0
20260502200924 66 271 4.0 8.0 0.00 0.00 0.00 37 1014.9
20260502200419 66 353 1.0 11.0 0.00 0.00 0.00 38 1015.0
20260502195917 65 212 4.0 6.0 0.00 0.00 0.00 37 1015.1
20260502195414 65 242 1.0 14.0 0.00 0.00 0.00 37 1014.9
20260502194910 65 333 0.0 9.0 0.00 0.00 0.00 36 1015.4
20260502194407 64 214 1.0 6.0 0.00 0.00 0.00 35 1015.1
20260502193903 65 192 9.0 11.0 0.00 0.00 0.00 34 1015.5
20260502193400 66 237 3.0 6.0 0.00 0.00 0.00 37 1014.8
20260502192855 66 148 1.0 8.0 0.00 0.00 0.00 35 1015.0
20260502192353 66 199 3.0 13.0 0.00 0.00 0.00 33 1015.0
20260502191850 65 131 3.0 8.0 0.00 0.00 0.00 37 1015.1
20260502191348 66 150 4.0 13.0 0.00 0.00 0.00 34 1015.1
20260502190845 66 277 6.0 8.0 0.00 0.00 0.00 35 1015.0
20260502190342 66 256 2.0 4.0 0.00 0.00 0.00 39 1015.0
20260502185838 65 228 6.0 9.0 0.00 0.00 0.00 38 1014.8
20260502185334 66 299 3.0 9.0 0.00 0.00 0.00 37 1015.2
20260502184831 66 250 3.0 6.0 0.00 0.00 0.00 36 1015.0
20260502184326 66 223 2.0 9.0 0.00 0.00 0.00 37 1014.8
20260502183824 66 345 3.0 9.0 0.00 0.00 0.00 38 1015.1
20260502183320 66 5 2.0 4.0 0.00 0.00 0.00 35 1014.8
20260502182815 66 215 2.0 8.0 0.00 0.00 0.00 38 1015.1
20260502182310 65 198 1.0 7.0 0.00 0.00 0.00 42 1014.9
20260502181807 65 344 2.0 8.0 0.00 0.00 0.00 38 1015.0
20260502181306 65 245 6.0 8.0 0.00 0.00 0.00 41 1015.0
20260502180803 64 277 3.0 7.0 0.00 0.00 0.00 41 1015.2
20260502180300 64 231 4.0 8.0 0.00 0.00 0.00 39 1015.1
20260502170214 62 255 6.0 10.0 0.00 0.00 0.00 50 1015.2
20260502164201 61 180 3.0 14.0 0.00 0.00 0.00 53 1015.5
20260502163656 61 272 8.0 11.0 0.00 0.00 0.00 51 1015.3
20260502163153 61 285 4.0 11.0 0.00 0.00 0.00 50 1015.5
20260502162649 62 214 3.0 13.0 0.00 0.00 0.00 51 1015.3
20260502162147 62 261 0.0 8.0 0.00 0.00 0.00 51 1015.3
20260502161644 62 342 2.0 7.0 0.00 0.00 0.00 53 1015.5
20260502161140 61 240 3.0 7.0 0.00 0.00 0.00 50 1015.4
20260502160638 61 277 8.0 13.0 0.00 0.00 0.00 49 1015.4
20260502160137 61 213 4.0 9.0 0.00 0.00 0.00 49 1015.5
20260502152051 60 213 2.0 8.0 0.00 0.00 0.00 55 1015.2
20260502151549 60 215 3.0 6.0 0.00 0.00 0.00 55 1015.4
20260502151046 59 1 2.0 8.0 0.00 0.00 0.00 58 1015.2
20260502150544 59 274 3.0 8.0 0.00 0.00 0.00 57 1015.1
20260502130428 54 224 4.0 6.0 0.00 0.00 0.00 69 1014.4
20260502123410 53 321 0.0 1.0 0.00 0.00 0.00 69 1014.4
20260502122908 53 333 2.0 3.0 0.00 0.00 0.00 69 1014.2
20260502122404 53 256 0.0 3.0 0.00 0.00 0.00 69 1014.3
20260502121902 53 192 0.0 6.0 0.00 0.00 0.00 68 1014.4
20260502121359 53 65 0.0 1.0 0.00 0.00 0.00 69 1014.3
20260502120856 53 316 0.0 4.0 0.00 0.00 0.00 68 1014.4
20260502120352 53 299 1.0 6.0 0.00 0.00 0.00 68 1014.1
20260502115850 53 222 1.0 7.0 0.00 0.00 0.00 68 1014.2
20260502115347 53 246 3.0 4.0 0.00 0.00 0.00 68 1013.7
20260502114843 53 249 3.0 4.0 0.00 0.00 0.00 67 1013.8
20260502114340 53 202 1.0 2.0 0.00 0.00 0.00 67 1014.1
20260502113837 53 22 1.0 6.0 0.00 0.00 0.00 67 1014.1
20260502113334 53 336 1.0 2.0 0.00 0.00 0.00 67 1014.4
20260502112833 53 282 2.0 4.0 0.00 0.00 0.00 66 1014.3
20260502112330 53 265 4.0 6.0 0.00 0.00 0.00 65 1014.2
20260502111827 53 242 3.0 9.0 0.00 0.00 0.00 66 1014.1
20260502111325 53 246 2.0 4.0 0.00 0.00 0.00 66 1014.1
20260502110822 53 305 0.0 3.0 0.00 0.00 0.00 66 1014.1
20260502110320 53 244 1.0 3.0 0.00 0.00 0.00 65 1014.1
20260502105817 53 147 0.0 6.0 0.00 0.00 0.00 65 1014.0
20260502105314 53 251 1.0 3.0 0.00 0.00 0.00 65 1014.0
20260502104812 53 239 2.0 4.0 0.00 0.00 0.00 65 1013.8
20260502104308 53 239 1.0 2.0 0.00 0.00 0.00 64 1013.5
20260502103806 53 236 3.0 4.0 0.00 0.00 0.00 64 1013.4
20260502103303 53 244 3.0 4.0 0.00 0.00 0.00 63 1013.5
20260502102800 53 214 3.0 8.0 0.00 0.00 0.00 63 1013.5
20260502102256 54 201 0.0 8.0 0.00 0.00 0.00 62 1013.8
20260502101755 54 257 1.0 2.0 0.00 0.00 0.00 63 1013.7
20260502101252 54 222 1.0 3.0 0.00 0.00 0.00 63 1013.8
20260502100750 54 306 2.0 3.0 0.00 0.00 0.00 62 1013.7
20260502100249 54 304 0.0 4.0 0.00 0.00 0.00 62 1013.4
20260502091223 55 184 3.0 4.0 0.00 0.00 0.00 59 1013.5
20260502090720 55 315 1.0 7.0 0.00 0.00 0.00 58 1013.6
20260502090217 55 205 2.0 3.0 0.00 0.00 0.00 58 1013.6
20260502071114 57 221 5.0 10.0 0.00 0.00 0.00 57 1013.9
20260502070611 57 189 3.0 7.0 0.00 0.00 0.00 58 1014.0
20260502070109 57 308 6.0 9.0 0.00 0.00 0.00 58 1014.4
20260502065607 57 211 3.0 9.0 0.00 0.00 0.00 58 1014.4
20260502065104 57 248 2.0 4.0 0.00 0.00 0.00 60 1014.4
20260502064603 57 271 4.0 7.0 0.00 0.00 0.00 60 1014.5
20260502064100 57 267 1.0 7.0 0.00 0.00 0.00 61 1014.5
20260502063557 58 305 2.0 4.0 0.00 0.00 0.00 61 1014.7
20260502063055 58 255 2.0 4.0 0.00 0.00 0.00 62 1014.4
20260502062552 58 238 3.0 6.0 0.00 0.00 0.00 62 1014.4
20260502062050 58 320 2.0 4.0 0.00 0.00 0.00 63 1014.4
20260502061548 58 339 0.0 4.0 0.00 0.00 0.00 63 1014.6
20260502061045 58 189 1.0 6.0 0.00 0.00 0.00 63 1014.7
20260502060540 58 319 2.0 6.0 0.00 0.00 0.00 65 1014.5
20260502060037 58 219 4.0 9.0 0.00 0.00 0.00 65 1014.7
20260502055534 58 259 1.0 7.0 0.00 0.00 0.00 66 1014.9
20260502055033 58 233 0.0 3.0 0.00 0.00 0.00 67 1014.7
20260502054531 58 189 2.0 6.0 0.00 0.00 0.00 67 1014.7
20260502054028 58 269 2.0 3.0 0.00 0.00 0.00 68 1014.5
20260502053525 58 246 2.0 6.0 0.00 0.00 0.00 68 1014.6
20260502053023 58 357 0.0 6.0 0.00 0.00 0.00 69 1014.3
20260502052521 58 144 0.0 9.0 0.00 0.00 0.00 69 1014.4
20260502052019 58 124 2.0 6.0 0.00 0.00 0.00 71 1014.4
20260502051516 58 316 2.0 9.0 0.00 0.00 0.00 70 1014.5
20260502051014 58 259 2.0 3.0 0.00 0.00 0.00 73 1014.6
20260502050510 58 131 3.0 8.0 0.00 0.00 0.00 74 1014.6
20260502050007 58 278 2.0 6.0 0.00 0.00 0.00 74 1014.4
20260502045504 58 248 2.0 2.0 0.00 0.00 0.00 76 1014.3
20260502045001 58 33 1.0 2.0 0.00 0.00 0.00 77 1014.3
20260502044457 58 244 3.0 7.0 0.00 0.00 0.00 77 1014.5
20260502043954 58 235 1.0 1.0 0.00 0.00 0.00 79 1014.6
20260502043451 58 276 0.0 3.0 0.00 0.00 0.00 81 1014.6
20260502042950 58 206 4.0 4.0 0.00 0.00 0.00 81 1014.6
20260502042448 58 228 0.0 2.0 0.00 0.00 0.00 81 1014.6
20260502041945 58 260 1.0 2.0 0.00 0.00 0.00 80 1014.8
20260502041443 58 241 2.0 2.0 0.00 0.00 0.00 80 1014.8
20260502040939 58 273 0.0 2.0 0.00 0.00 0.00 81 1014.8
20260502040436 57 277 2.0 3.0 0.00 0.00 0.00 84 1014.9
20260502035932 56 238 1.0 2.0 0.00 0.00 0.00 88 1015.0
20260502035429 56 220 0.0 0.0 0.00 0.00 0.00 90 1014.9
20260502034927 56 220 0.0 0.0 0.00 0.00 0.00 90 1015.0
20260502034425 56 220 0.0 0.0 0.00 0.00 0.00 90 1015.0
20260502033923 56 220 0.0 0.0 0.00 0.00 0.00 89 1015.0
20260502033420 56 220 0.0 0.0 0.00 0.00 0.00 89 1015.0
20260502032917 56 220 0.0 0.0 0.00 0.00 0.00 89 1015.2
20260502032413 56 220 0.0 0.0 0.00 0.00 0.00 89 1015.1
20260502031910 57 220 0.0 0.0 0.00 0.00 0.00 89 1015.2
20260502031409 57 220 0.0 0.0 0.00 0.00 0.00 89 1015.1
20260502030907 57 220 0.0 0.0 0.00 0.00 0.00 89 1015.2
20260502030405 57 220 0.0 0.0 0.00 0.00 0.00 89 1015.4
20260502025902 57 220 0.0 0.0 0.00 0.00 0.00 89 1015.2
20260502025359 57 220 0.0 0.0 0.00 0.00 0.00 89 1015.1
20260502024857 57 220 0.0 0.0 0.00 0.00 0.00 89 1015.1
20260502024355 57 220 0.0 0.0 0.00 0.00 0.00 88 1015.1
20260502023853 57 220 0.0 0.0 0.00 0.00 0.00 87 1015.2
20260502023350 57 220 0.0 0.0 0.00 0.00 0.00 87 1014.9
20260502022848 57 201 0.0 0.0 0.00 0.00 0.00 88 1015.1
20260502022344 57 220 0.0 0.0 0.00 0.00 0.00 87 1014.9
20260502021841 57 201 0.0 0.0 0.00 0.00 0.00 87 1015.0
20260502021338 58 220 0.0 0.0 0.00 0.00 0.00 87 1015.2
20260502020835 58 220 0.0 0.0 0.00 0.00 0.00 87 1015.1
20260502020333 58 220 0.0 0.0 0.00 0.00 0.00 87 1015.1
20260502015830 58 220 0.0 0.0 0.00 0.00 0.00 87 1014.8
20260502015327 58 220 0.0 0.0 0.00 0.00 0.00 86 1014.9
20260502014824 58 220 0.0 0.0 0.00 0.00 0.00 86 1014.6
20260502014321 58 220 0.0 0.0 0.00 0.00 0.00 85 1014.9
20260502013817 58 220 0.0 0.0 0.00 0.00 0.00 83 1014.8
20260502013313 58 220 0.0 0.0 0.00 0.00 0.00 83 1014.8
20260502012809 58 220 0.0 0.0 0.00 0.00 0.00 83 1014.7
20260502012307 58 220 0.0 0.0 0.00 0.00 0.00 84 1014.7
20260502011804 58 220 0.0 0.0 0.00 0.00 0.00 84 1014.4
20260502011300 58 220 0.0 0.0 0.00 0.00 0.00 85 1014.5
20260502010758 58 220 0.0 0.0 0.00 0.00 0.00 85 1014.3
20260502010254 59 220 0.0 0.0 0.00 0.00 0.00 83 1014.5
20260502005751 59 220 0.0 0.0 0.00 0.00 0.00 83 1014.6
20260502005249 59 201 0.0 0.0 0.00 0.00 0.00 81 1014.3
20260502004745 59 220 0.0 0.0 0.00 0.00 0.00 79 1014.0
20260502004242 59 220 0.0 0.0 0.00 0.00 0.00 79 1014.1
20260502003740 59 220 0.0 0.0 0.00 0.00 0.00 79 1014.1
20260502003237 59 220 0.0 0.0 0.00 0.00 0.00 80 1014.1
20260502002732 60 220 0.0 0.0 0.00 0.00 0.00 78 1014.2
20260502002230 60 220 0.0 0.0 0.00 0.00 0.00 77 1014.2
20260502001727 60 220 0.0 0.0 0.00 0.00 0.00 76 1014.2
20260502001225 61 220 0.0 0.0 0.00 0.00 0.00 76 1014.0
20260502000723 61 220 0.0 0.0 0.00 0.00 0.00 76 1013.9
20260502000220 62 220 0.0 0.0 0.00 0.00 0.00 76 1014.1
20260501235716 62 202 0.0 0.0 0.00 0.00 0.00 75 1014.1
20260501235212 62 220 0.0 0.0 0.00 0.00 0.00 74 1013.9
20260501234708 62 220 0.0 0.0 0.00 0.00 0.00 72 1014.1
20260501234205 63 220 0.0 0.0 0.00 0.00 0.00 69 1013.8
20260501233703 63 220 0.0 0.0 0.00 0.00 0.00 70 1014.0
20260501233200 63 220 0.0 0.0 0.00 0.00 0.00 69 1013.9
20260501232656 63 221 0.0 0.0 0.00 0.00 0.00 68 1013.9
20260501232154 64 221 0.0 0.0 0.00 0.00 0.00 68 1014.0
20260501231651 64 221 0.0 0.0 0.00 0.00 0.00 64 1013.9
20260501231149 64 221 0.0 0.0 0.00 0.00 0.00 60 1013.9
20260501230647 65 202 0.0 0.0 0.00 0.00 0.00 66 1013.7
20260501230145 64 202 0.0 0.0 0.00 0.00 0.00 59 1013.7
20260501225643 65 221 0.0 1.0 0.00 0.00 0.00 60 1013.9
20260501225139 65 221 1.0 1.0 0.00 0.00 0.00 55 1013.9
20260501224636 65 221 0.0 1.0 0.00 0.00 0.00 55 1013.9
20260501224133 66 221 0.0 0.0 0.00 0.00 0.00 59 1013.6
20260501223629 67 238 1.0 2.0 0.00 0.00 0.00 54 1013.4
20260501223126 67 220 0.0 1.0 0.00 0.00 0.00 53 1013.3
20260501222622 67 182 1.0 2.0 0.00 0.00 0.00 52 1013.4
20260501222119 68 229 0.0 2.0 0.00 0.00 0.00 54 1013.5
20260501221616 68 215 2.0 3.0 0.00 0.00 0.00 54 1013.4
20260501221113 68 300 0.0 1.0 0.00 0.00 0.00 54 1013.2
20260501220611 68 223 0.0 4.0 0.00 0.00 0.00 55 1013.3
20260501220108 68 245 0.0 2.0 0.00 0.00 0.00 57 1013.4
20260501215604 68 229 3.0 3.0 0.00 0.00 0.00 56 1013.5
20260501215100 67 200 1.0 2.0 0.00 0.00 0.00 59 1013.8
20260501214555 67 217 0.0 1.0 0.00 0.00 0.00 60 1013.6
20260501214050 67 206 0.0 3.0 0.00 0.00 0.00 58 1013.9
20260501213548 67 220 1.0 3.0 0.00 0.00 0.00 56 1013.9
20260501213044 67 244 1.0 2.0 0.00 0.00 0.00 56 1014.2
20260501212540 67 251 2.0 3.0 0.00 0.00 0.00 56 1014.2
20260501212037 67 261 2.0 3.0 0.00 0.00 0.00 56 1014.1